Year,Month,Day,Hour,Minute,Value (Times are PST for temperature in C)
2015,09,12,00,00,17.50
2015,09,12,00,01,17.50
2015,09,12,00,02,17.50
2015,09,12,00,03,17.50
2015,09,12,00,04,17.50
2015,09,12,00,05,17.60
2015,09,12,00,06,17.60
2015,09,12,00,07,17.60
2015,09,12,00,08,17.60
2015,09,12,00,09,17.60
2015,09,12,00,10,17.60
2015,09,12,00,11,17.60
2015,09,12,00,12,17.60
2015,09,12,00,13,17.50
2015,09,12,00,14,17.50
2015,09,12,00,15,17.50
2015,09,12,00,16,17.40
2015,09,12,00,17,17.40
2015,09,12,00,18,17.40
2015,09,12,00,19,17.30
2015,09,12,00,20,17.20
2015,09,12,00,21,17.10
2015,09,12,00,22,16.90
2015,09,12,00,23,16.80
2015,09,12,00,24,16.70
2015,09,12,00,25,16.50
2015,09,12,00,26,16.50
2015,09,12,00,27,16.40
2015,09,12,00,28,16.30
2015,09,12,00,29,16.30
2015,09,12,00,30,16.20
2015,09,12,00,31,16.20
2015,09,12,00,32,16.20
2015,09,12,00,33,16.20
2015,09,12,00,34,16.10
2015,09,12,00,35,16.10
2015,09,12,00,36,16.10
2015,09,12,00,37,16.10
2015,09,12,00,38,16.10
2015,09,12,00,39,16.10
2015,09,12,00,40,16.00
2015,09,12,00,41,16.00
2015,09,12,00,42,16.00
2015,09,12,00,43,16.00
2015,09,12,00,44,16.00
2015,09,12,00,45,16.00
2015,09,12,00,46,15.90
2015,09,12,00,47,15.90
2015,09,12,00,48,15.90
2015,09,12,00,49,15.90
2015,09,12,00,50,15.80
2015,09,12,00,51,15.80
2015,09,12,00,52,15.80
2015,09,12,00,53,15.70
2015,09,12,00,54,15.70
2015,09,12,00,55,15.70
2015,09,12,00,56,15.70
2015,09,12,00,57,15.60
2015,09,12,00,58,15.60
2015,09,12,00,59,15.60
2015,09,12,01,00,15.50
2015,09,12,01,01,15.50
2015,09,12,01,02,15.40
2015,09,12,01,03,15.40
2015,09,12,01,04,15.40
2015,09,12,01,05,15.40
2015,09,12,01,06,15.30
2015,09,12,01,07,15.30
2015,09,12,01,08,15.30
2015,09,12,01,09,15.30
2015,09,12,01,10,15.20
2015,09,12,01,11,15.20
2015,09,12,01,12,15.20
2015,09,12,01,13,15.20
2015,09,12,01,14,15.20
2015,09,12,01,15,15.20
2015,09,12,01,16,15.20
2015,09,12,01,17,15.20
2015,09,12,01,18,15.20
2015,09,12,01,19,15.20
2015,09,12,01,20,15.20
2015,09,12,01,21,15.20
2015,09,12,01,22,15.20
2015,09,12,01,23,15.20
2015,09,12,01,24,15.20
2015,09,12,01,25,15.20
2015,09,12,01,26,15.20
2015,09,12,01,27,15.20
2015,09,12,01,28,15.20
2015,09,12,01,29,15.20
2015,09,12,01,30,15.20
2015,09,12,01,31,15.30
2015,09,12,01,32,15.30
2015,09,12,01,33,15.30
2015,09,12,01,34,15.20
2015,09,12,01,35,15.20
2015,09,12,01,36,15.20
2015,09,12,01,37,15.20
2015,09,12,01,38,15.20
2015,09,12,01,39,15.20
2015,09,12,01,40,15.20
2015,09,12,01,41,15.20
2015,09,12,01,42,15.20
2015,09,12,01,43,15.20
2015,09,12,01,44,15.20
2015,09,12,01,45,15.10
2015,09,12,01,46,15.10
2015,09,12,01,47,15.10
2015,09,12,01,48,15.10
2015,09,12,01,49,15.10
2015,09,12,01,50,15.10
2015,09,12,01,51,15.10
2015,09,12,01,52,15.10
2015,09,12,01,53,15.10
2015,09,12,01,54,15.10
2015,09,12,01,55,15.10
2015,09,12,01,56,15.10
2015,09,12,01,57,15.00
2015,09,12,01,58,15.00
2015,09,12,01,59,15.00
2015,09,12,02,00,15.00
2015,09,12,02,01,15.00
2015,09,12,02,02,15.00
2015,09,12,02,03,15.00
2015,09,12,02,04,15.00
2015,09,12,02,05,15.00
2015,09,12,02,06,15.00
2015,09,12,02,07,14.90
2015,09,12,02,08,14.90
2015,09,12,02,09,14.90
2015,09,12,02,10,14.90
2015,09,12,02,11,14.90
2015,09,12,02,12,14.90
2015,09,12,02,13,14.90
2015,09,12,02,14,14.90
2015,09,12,02,15,14.90
2015,09,12,02,16,14.90
2015,09,12,02,17,14.90
2015,09,12,02,18,14.90
2015,09,12,02,19,14.90
2015,09,12,02,20,15.00
2015,09,12,02,21,15.00
2015,09,12,02,22,15.00
2015,09,12,02,23,15.00
2015,09,12,02,24,15.10
2015,09,12,02,25,15.10
2015,09,12,02,26,15.10
2015,09,12,02,27,15.10
2015,09,12,02,28,15.20
2015,09,12,02,29,15.20
2015,09,12,02,30,15.20
2015,09,12,02,31,15.20
2015,09,12,02,32,15.20
2015,09,12,02,33,15.20
2015,09,12,02,34,15.30
2015,09,12,02,35,15.30
2015,09,12,02,36,15.30
2015,09,12,02,37,15.30
2015,09,12,02,38,15.30
2015,09,12,02,39,15.30
2015,09,12,02,40,15.30
2015,09,12,02,41,15.30
2015,09,12,02,42,15.30
2015,09,12,02,43,15.30
2015,09,12,02,44,15.30
2015,09,12,02,45,15.30
2015,09,12,02,46,15.20
2015,09,12,02,47,15.20
2015,09,12,02,48,15.20
2015,09,12,02,49,15.20
2015,09,12,02,50,15.20
2015,09,12,02,51,15.10
2015,09,12,02,52,15.10
2015,09,12,02,53,15.10
2015,09,12,02,54,15.10
2015,09,12,02,55,15.10
2015,09,12,02,56,15.00
2015,09,12,02,57,15.00
2015,09,12,02,58,15.00
2015,09,12,02,59,14.90
2015,09,12,03,00,14.90
2015,09,12,03,01,14.90
2015,09,12,03,02,14.90
2015,09,12,03,03,14.90
2015,09,12,03,04,14.80
2015,09,12,03,05,14.80
2015,09,12,03,06,14.80
2015,09,12,03,07,14.80
2015,09,12,03,08,14.80
2015,09,12,03,09,14.80
2015,09,12,03,10,14.70
2015,09,12,03,11,14.70
2015,09,12,03,12,14.70
2015,09,12,03,13,14.70
2015,09,12,03,14,14.60
2015,09,12,03,15,14.60
2015,09,12,03,16,14.60
2015,09,12,03,17,14.60
2015,09,12,03,18,14.50
2015,09,12,03,19,14.40
2015,09,12,03,20,14.40
2015,09,12,03,21,14.40
2015,09,12,03,22,14.40
2015,09,12,03,23,14.40
2015,09,12,03,24,14.40
2015,09,12,03,25,14.40
2015,09,12,03,26,14.50
2015,09,12,03,27,14.60
2015,09,12,03,28,14.80
2015,09,12,03,29,14.90
2015,09,12,03,30,15.00
2015,09,12,03,31,15.10
2015,09,12,03,32,15.20
2015,09,12,03,33,15.20
2015,09,12,03,34,15.30
2015,09,12,03,35,15.40
2015,09,12,03,36,15.40
2015,09,12,03,37,15.50
2015,09,12,03,38,15.60
2015,09,12,03,39,15.70
2015,09,12,03,40,15.80
2015,09,12,03,41,15.80
2015,09,12,03,42,15.90
2015,09,12,03,43,15.90
2015,09,12,03,44,16.00
2015,09,12,03,45,16.00
2015,09,12,03,46,16.00
2015,09,12,03,47,16.00
2015,09,12,03,48,16.00
2015,09,12,03,49,16.00
2015,09,12,03,50,16.00
2015,09,12,03,51,16.00
2015,09,12,03,52,16.00
2015,09,12,03,53,15.90
2015,09,12,03,54,15.90
2015,09,12,03,55,15.90
2015,09,12,03,56,15.80
2015,09,12,03,57,15.80
2015,09,12,03,58,15.70
2015,09,12,03,59,15.70
2015,09,12,04,00,15.60
2015,09,12,04,01,15.60
2015,09,12,04,02,15.50
2015,09,12,04,03,15.50
2015,09,12,04,04,15.40
2015,09,12,04,05,15.40
2015,09,12,04,06,15.30
2015,09,12,04,07,15.30
2015,09,12,04,08,15.30
2015,09,12,04,09,15.20
2015,09,12,04,10,15.20
2015,09,12,04,11,15.10
2015,09,12,04,12,15.10
2015,09,12,04,13,15.10
2015,09,12,04,14,15.00
2015,09,12,04,15,15.00
2015,09,12,04,16,14.90
2015,09,12,04,17,14.90
2015,09,12,04,18,14.90
2015,09,12,04,19,14.90
2015,09,12,04,20,14.90
2015,09,12,04,21,15.00
2015,09,12,04,22,15.10
2015,09,12,04,23,15.10
2015,09,12,04,24,15.20
2015,09,12,04,25,15.30
2015,09,12,04,26,15.30
2015,09,12,04,27,15.30
2015,09,12,04,28,15.20
2015,09,12,04,29,15.20
2015,09,12,04,30,15.10
2015,09,12,04,31,15.10
2015,09,12,04,32,15.00
2015,09,12,04,33,15.00
2015,09,12,04,34,14.90
2015,09,12,04,35,14.80
2015,09,12,04,36,14.80
2015,09,12,04,37,14.70
2015,09,12,04,38,14.70
2015,09,12,04,39,14.70
2015,09,12,04,40,14.60
2015,09,12,04,41,14.60
2015,09,12,04,42,14.60
2015,09,12,04,43,14.50
2015,09,12,04,44,14.50
2015,09,12,04,45,14.40
2015,09,12,04,46,14.40
2015,09,12,04,47,14.40
2015,09,12,04,48,14.30
2015,09,12,04,49,14.30
2015,09,12,04,50,14.30
2015,09,12,04,51,14.20
2015,09,12,04,52,14.20
2015,09,12,04,53,14.20
2015,09,12,04,54,14.20
2015,09,12,04,55,14.20
2015,09,12,04,56,14.10
2015,09,12,04,57,14.10
2015,09,12,04,58,14.10
2015,09,12,04,59,14.10
2015,09,12,05,00,14.10
2015,09,12,05,01,14.10
2015,09,12,05,02,14.10
2015,09,12,05,03,14.10
2015,09,12,05,04,14.10
2015,09,12,05,05,14.00
2015,09,12,05,06,14.00
2015,09,12,05,07,14.00
2015,09,12,05,08,14.00
2015,09,12,05,09,14.00
2015,09,12,05,10,13.90
2015,09,12,05,11,13.90
2015,09,12,05,12,13.90
2015,09,12,05,13,13.90
2015,09,12,05,14,13.90
2015,09,12,05,15,13.90
2015,09,12,05,16,13.80
2015,09,12,05,17,13.80
2015,09,12,05,18,13.80
2015,09,12,05,19,13.80
2015,09,12,05,20,13.80
2015,09,12,05,21,13.90
2015,09,12,05,22,13.90
2015,09,12,05,23,13.90
2015,09,12,05,24,13.90
2015,09,12,05,25,13.90
2015,09,12,05,26,13.90
2015,09,12,05,27,13.90
2015,09,12,05,28,13.90
2015,09,12,05,29,13.90
2015,09,12,05,30,13.90
2015,09,12,05,31,13.80
2015,09,12,05,32,13.80
2015,09,12,05,33,13.80
2015,09,12,05,34,13.80
2015,09,12,05,35,13.80
2015,09,12,05,36,13.80
2015,09,12,05,37,13.80
2015,09,12,05,38,13.70
2015,09,12,05,39,13.70
2015,09,12,05,40,13.70
2015,09,12,05,41,13.70
2015,09,12,05,42,13.70
2015,09,12,05,43,13.60
2015,09,12,05,44,13.60
2015,09,12,05,45,13.60
2015,09,12,05,46,13.60
2015,09,12,05,47,13.60
2015,09,12,05,48,13.50
2015,09,12,05,49,13.50
2015,09,12,05,50,13.50
2015,09,12,05,51,13.50
2015,09,12,05,52,13.40
2015,09,12,05,53,13.40
2015,09,12,05,54,13.40
2015,09,12,05,55,13.40
2015,09,12,05,56,13.40
2015,09,12,05,57,13.40
2015,09,12,05,58,13.40
2015,09,12,05,59,13.30
2015,09,12,06,00,13.30
2015,09,12,06,01,13.30
2015,09,12,06,02,13.30
2015,09,12,06,03,13.30
2015,09,12,06,04,13.30
2015,09,12,06,05,13.20
2015,09,12,06,06,13.20
2015,09,12,06,07,13.20
2015,09,12,06,08,13.20
2015,09,12,06,09,13.20
2015,09,12,06,10,13.20
2015,09,12,06,11,13.20
2015,09,12,06,12,13.10
2015,09,12,06,13,13.10
2015,09,12,06,14,13.10
2015,09,12,06,15,13.10
2015,09,12,06,16,13.00
2015,09,12,06,17,13.00
2015,09,12,06,18,12.90
2015,09,12,06,19,12.90
2015,09,12,06,20,12.90
2015,09,12,06,21,12.90
2015,09,12,06,22,12.90
2015,09,12,06,23,12.90
2015,09,12,06,24,12.90
2015,09,12,06,25,12.90
2015,09,12,06,26,12.80
2015,09,12,06,27,12.80
2015,09,12,06,28,12.80
2015,09,12,06,29,12.80
2015,09,12,06,30,12.80
2015,09,12,06,31,12.80
2015,09,12,06,32,12.90
2015,09,12,06,33,12.90
2015,09,12,06,34,12.90
2015,09,12,06,35,12.90
2015,09,12,06,36,12.90
2015,09,12,06,37,12.90
2015,09,12,06,38,12.80
2015,09,12,06,39,12.80
2015,09,12,06,40,12.80
2015,09,12,06,41,12.70
2015,09,12,06,42,12.70
2015,09,12,06,43,12.70
2015,09,12,06,44,12.70
2015,09,12,06,45,12.60
2015,09,12,06,46,12.60
2015,09,12,06,47,12.60
2015,09,12,06,48,12.60
2015,09,12,06,49,12.60
2015,09,12,06,50,12.60
2015,09,12,06,51,12.60
2015,09,12,06,52,12.60
2015,09,12,06,53,12.60
2015,09,12,06,54,12.60
2015,09,12,06,55,12.50
2015,09,12,06,56,12.50
2015,09,12,06,57,12.50
2015,09,12,06,58,12.50
2015,09,12,06,59,12.40
2015,09,12,07,00,12.40
2015,09,12,07,01,12.40
2015,09,12,07,02,12.40
2015,09,12,07,03,12.40
2015,09,12,07,04,12.40
2015,09,12,07,05,12.40
2015,09,12,07,06,12.40
2015,09,12,07,07,12.40
2015,09,12,07,08,12.40
2015,09,12,07,09,12.40
2015,09,12,07,10,12.40
2015,09,12,07,11,12.40
2015,09,12,07,12,12.40
2015,09,12,07,13,12.50
2015,09,12,07,14,12.50
2015,09,12,07,15,12.50
2015,09,12,07,16,12.60
2015,09,12,07,17,12.60
2015,09,12,07,18,12.60
2015,09,12,07,19,12.60
2015,09,12,07,20,12.60
2015,09,12,07,21,12.60
2015,09,12,07,22,12.60
2015,09,12,07,23,12.60
2015,09,12,07,24,12.60
2015,09,12,07,25,12.60
2015,09,12,07,26,12.60
2015,09,12,07,27,12.60
2015,09,12,07,28,12.60
2015,09,12,07,29,12.70
2015,09,12,07,30,12.70
2015,09,12,07,31,12.70
2015,09,12,07,32,12.70
2015,09,12,07,33,12.80
2015,09,12,07,34,12.80
2015,09,12,07,35,12.80
2015,09,12,07,36,12.80
2015,09,12,07,37,12.80
2015,09,12,07,38,12.80
2015,09,12,07,39,12.80
2015,09,12,07,40,12.80
2015,09,12,07,41,12.80
2015,09,12,07,42,12.80
2015,09,12,07,43,12.80
2015,09,12,07,44,12.80
2015,09,12,07,45,12.80
2015,09,12,07,46,12.80
2015,09,12,07,47,12.90
2015,09,12,07,48,12.90
2015,09,12,07,49,12.90
2015,09,12,07,50,13.00
2015,09,12,07,51,13.00
2015,09,12,07,52,13.00
2015,09,12,07,53,13.10
2015,09,12,07,54,13.10
2015,09,12,07,55,13.10
2015,09,12,07,56,13.10
2015,09,12,07,57,13.20
2015,09,12,07,58,13.20
2015,09,12,07,59,13.20
2015,09,12,08,00,13.30
2015,09,12,08,01,13.30
2015,09,12,08,02,13.40
2015,09,12,08,03,13.40
2015,09,12,08,04,13.50
2015,09,12,08,05,13.50
2015,09,12,08,06,13.60
2015,09,12,08,07,13.60
2015,09,12,08,08,13.70
2015,09,12,08,09,13.70
2015,09,12,08,10,13.80
2015,09,12,08,11,13.90
2015,09,12,08,12,14.00
2015,09,12,08,13,14.10
2015,09,12,08,14,14.20
2015,09,12,08,15,14.20
2015,09,12,08,16,14.30
2015,09,12,08,17,14.40
2015,09,12,08,18,14.40
2015,09,12,08,19,14.50
2015,09,12,08,20,14.60
2015,09,12,08,21,14.60
2015,09,12,08,22,14.70
2015,09,12,08,23,14.70
2015,09,12,08,24,14.80
2015,09,12,08,25,14.90
2015,09,12,08,26,14.90
2015,09,12,08,27,15.00
2015,09,12,08,28,15.10
2015,09,12,08,29,15.10
2015,09,12,08,30,15.20
2015,09,12,08,31,15.20
2015,09,12,08,32,15.30
2015,09,12,08,33,15.40
2015,09,12,08,34,15.40
2015,09,12,08,35,15.50
2015,09,12,08,36,15.60
2015,09,12,08,37,15.70
2015,09,12,08,38,15.70
2015,09,12,08,39,15.70
2015,09,12,08,40,15.80
2015,09,12,08,41,15.80
2015,09,12,08,42,15.90
2015,09,12,08,43,15.90
2015,09,12,08,44,16.00
2015,09,12,08,45,16.00
2015,09,12,08,46,16.10
2015,09,12,08,47,16.20
2015,09,12,08,48,16.30
2015,09,12,08,49,16.30
2015,09,12,08,50,16.40
2015,09,12,08,51,16.50
2015,09,12,08,52,16.50
2015,09,12,08,53,16.60
2015,09,12,08,54,16.60
2015,09,12,08,55,16.60
2015,09,12,08,56,16.60
2015,09,12,08,57,16.70
2015,09,12,08,58,16.70
2015,09,12,08,59,16.70
2015,09,12,09,00,16.70
2015,09,12,09,01,16.70
2015,09,12,09,02,16.70
2015,09,12,09,03,16.70
2015,09,12,09,04,16.70
2015,09,12,09,05,16.80
2015,09,12,09,06,16.90
2015,09,12,09,07,17.00
2015,09,12,09,08,17.10
2015,09,12,09,09,17.20
2015,09,12,09,10,17.20
2015,09,12,09,11,17.30
2015,09,12,09,12,17.40
2015,09,12,09,13,17.50
2015,09,12,09,14,17.60
2015,09,12,09,15,17.70
2015,09,12,09,16,17.80
2015,09,12,09,17,17.90
2015,09,12,09,18,18.00
2015,09,12,09,19,18.10
2015,09,12,09,20,18.20
2015,09,12,09,21,18.20
2015,09,12,09,22,18.30
2015,09,12,09,23,18.30
2015,09,12,09,24,18.40
2015,09,12,09,25,18.40
2015,09,12,09,26,18.40
2015,09,12,09,27,18.40
2015,09,12,09,28,18.40
2015,09,12,09,29,18.30
2015,09,12,09,30,18.30
2015,09,12,09,31,18.30
2015,09,12,09,32,18.30
2015,09,12,09,33,18.20
2015,09,12,09,34,18.20
2015,09,12,09,35,18.20
2015,09,12,09,36,18.20
2015,09,12,09,37,18.30
2015,09,12,09,38,18.30
2015,09,12,09,39,18.30
2015,09,12,09,40,18.30
2015,09,12,09,41,18.30
2015,09,12,09,42,18.30
2015,09,12,09,43,18.30
2015,09,12,09,44,18.30
2015,09,12,09,45,18.30
2015,09,12,09,46,18.30
2015,09,12,09,47,18.30
2015,09,12,09,48,18.30
2015,09,12,09,49,18.40
2015,09,12,09,50,18.40
2015,09,12,09,51,18.40
2015,09,12,09,52,18.50
2015,09,12,09,53,18.50
2015,09,12,09,54,18.50
2015,09,12,09,55,18.40
2015,09,12,09,56,18.40
2015,09,12,09,57,18.50
2015,09,12,09,58,18.50
2015,09,12,09,59,18.50
2015,09,12,10,00,18.60
2015,09,12,10,01,18.60
2015,09,12,10,02,18.70
2015,09,12,10,03,18.70
2015,09,12,10,04,18.70
2015,09,12,10,05,18.80
2015,09,12,10,06,18.80
2015,09,12,10,07,18.80
2015,09,12,10,08,18.80
2015,09,12,10,09,18.80
2015,09,12,10,10,18.80
2015,09,12,10,11,18.80
2015,09,12,10,12,18.80
2015,09,12,10,13,18.90
2015,09,12,10,14,18.90
2015,09,12,10,15,19.00
2015,09,12,10,16,19.00
2015,09,12,10,17,19.10
2015,09,12,10,18,19.10
2015,09,12,10,19,19.10
2015,09,12,10,20,19.00
2015,09,12,10,21,19.00
2015,09,12,10,22,19.00
2015,09,12,10,23,19.00
2015,09,12,10,24,19.00
2015,09,12,10,25,18.90
2015,09,12,10,26,18.90
2015,09,12,10,27,18.90
2015,09,12,10,28,18.90
2015,09,12,10,29,18.90
2015,09,12,10,30,18.90
2015,09,12,10,31,19.00
2015,09,12,10,32,19.00
2015,09,12,10,33,19.00
2015,09,12,10,34,19.00
2015,09,12,10,35,19.10
2015,09,12,10,36,19.20
2015,09,12,10,37,19.30
2015,09,12,10,38,19.40
2015,09,12,10,39,19.50
2015,09,12,10,40,19.70
2015,09,12,10,41,19.80
2015,09,12,10,42,19.90
2015,09,12,10,43,20.00
2015,09,12,10,44,20.20
2015,09,12,10,45,20.30
2015,09,12,10,46,20.40
2015,09,12,10,47,20.60
2015,09,12,10,48,20.70
2015,09,12,10,49,20.70
2015,09,12,10,50,20.80
2015,09,12,10,51,20.90
2015,09,12,10,52,21.00
2015,09,12,10,53,21.00
2015,09,12,10,54,21.00
2015,09,12,10,55,21.10
2015,09,12,10,56,21.10
2015,09,12,10,57,21.10
2015,09,12,10,58,21.10
2015,09,12,10,59,21.10
2015,09,12,11,00,21.20
2015,09,12,11,01,21.20
2015,09,12,11,02,21.30
2015,09,12,11,03,21.30
2015,09,12,11,04,21.30
2015,09,12,11,05,21.20
2015,09,12,11,06,21.20
2015,09,12,11,07,21.30
2015,09,12,11,08,21.30
2015,09,12,11,09,21.40
2015,09,12,11,10,21.40
2015,09,12,11,11,21.40
2015,09,12,11,12,21.50
2015,09,12,11,13,21.50
2015,09,12,11,14,21.50
2015,09,12,11,15,21.50
2015,09,12,11,16,21.50
2015,09,12,11,17,21.60
2015,09,12,11,18,21.60
2015,09,12,11,19,21.50
2015,09,12,11,20,21.40
2015,09,12,11,21,21.30
2015,09,12,11,22,21.20
2015,09,12,11,23,21.10
2015,09,12,11,24,21.10
2015,09,12,11,25,21.10
2015,09,12,11,26,21.10
2015,09,12,11,27,21.10
2015,09,12,11,28,21.10
2015,09,12,11,29,21.10
2015,09,12,11,30,21.10
2015,09,12,11,31,21.00
2015,09,12,11,32,21.00
2015,09,12,11,33,21.00
2015,09,12,11,34,20.90
2015,09,12,11,35,20.90
2015,09,12,11,36,20.80
2015,09,12,11,37,20.70
2015,09,12,11,38,20.60
2015,09,12,11,39,20.50
2015,09,12,11,40,20.30
2015,09,12,11,41,20.30
2015,09,12,11,42,20.20
2015,09,12,11,43,20.20
2015,09,12,11,44,20.20
2015,09,12,11,45,20.20
2015,09,12,11,46,20.30
2015,09,12,11,47,20.30
2015,09,12,11,48,20.20
2015,09,12,11,49,20.20
2015,09,12,11,50,20.20
2015,09,12,11,51,20.20
2015,09,12,11,52,20.20
2015,09,12,11,53,20.30
2015,09,12,11,54,20.30
2015,09,12,11,55,20.40
2015,09,12,11,56,20.40
2015,09,12,11,57,20.40
2015,09,12,11,58,20.50
2015,09,12,11,59,20.60
2015,09,12,12,00,20.60
2015,09,12,12,01,20.70
2015,09,12,12,02,20.70
2015,09,12,12,03,20.80
2015,09,12,12,04,20.90
2015,09,12,12,05,20.90
2015,09,12,12,06,21.00
2015,09,12,12,07,21.10
2015,09,12,12,08,21.10
2015,09,12,12,09,21.20
2015,09,12,12,10,21.30
2015,09,12,12,11,21.30
2015,09,12,12,12,21.40
2015,09,12,12,13,21.40
2015,09,12,12,14,21.40
2015,09,12,12,15,21.40
2015,09,12,12,16,21.30
2015,09,12,12,17,21.30
2015,09,12,12,18,21.30
2015,09,12,12,19,21.40
2015,09,12,12,20,21.40
2015,09,12,12,21,21.40
2015,09,12,12,22,21.40
2015,09,12,12,23,21.40
2015,09,12,12,24,21.40
2015,09,12,12,25,21.30
2015,09,12,12,26,21.30
2015,09,12,12,27,21.30
2015,09,12,12,28,21.30
2015,09,12,12,29,21.30
2015,09,12,12,30,21.30
2015,09,12,12,31,21.20
2015,09,12,12,32,21.20
2015,09,12,12,33,21.20
2015,09,12,12,34,21.10
2015,09,12,12,35,21.10
2015,09,12,12,36,21.10
2015,09,12,12,37,21.20
2015,09,12,12,38,21.20
2015,09,12,12,39,21.30
2015,09,12,12,40,21.30
2015,09,12,12,41,21.30
2015,09,12,12,42,21.30
2015,09,12,12,43,21.30
2015,09,12,12,44,21.30
2015,09,12,12,45,21.40
2015,09,12,12,46,21.40
2015,09,12,12,47,21.50
2015,09,12,12,48,21.50
2015,09,12,12,49,21.60
2015,09,12,12,50,21.70
2015,09,12,12,51,21.70
2015,09,12,12,52,21.70
2015,09,12,12,53,21.60
2015,09,12,12,54,21.60
2015,09,12,12,55,21.50
2015,09,12,12,56,21.50
2015,09,12,12,57,21.40
2015,09,12,12,58,21.30
2015,09,12,12,59,21.30
2015,09,12,13,00,21.20
2015,09,12,13,01,21.20
2015,09,12,13,02,21.20
2015,09,12,13,03,21.20
2015,09,12,13,04,21.20
2015,09,12,13,05,21.30
2015,09,12,13,06,21.30
2015,09,12,13,07,21.40
2015,09,12,13,08,21.50
2015,09,12,13,09,21.50
2015,09,12,13,10,21.60
2015,09,12,13,11,21.70
2015,09,12,13,12,21.70
2015,09,12,13,13,21.80
2015,09,12,13,14,21.80
2015,09,12,13,15,21.90
2015,09,12,13,16,21.90
2015,09,12,13,17,21.90
2015,09,12,13,18,21.90
2015,09,12,13,19,22.00
2015,09,12,13,20,22.10
2015,09,12,13,21,22.10
2015,09,12,13,22,22.10
2015,09,12,13,23,22.00
2015,09,12,13,24,22.00
2015,09,12,13,25,21.90
2015,09,12,13,26,21.90
2015,09,12,13,27,21.90
2015,09,12,13,28,22.00
2015,09,12,13,29,22.10
2015,09,12,13,30,22.10
2015,09,12,13,31,22.10
2015,09,12,13,32,22.10
2015,09,12,13,33,22.20
2015,09,12,13,34,22.10
2015,09,12,13,35,22.10
2015,09,12,13,36,22.20
2015,09,12,13,37,22.20
2015,09,12,13,38,22.20
2015,09,12,13,39,22.30
2015,09,12,13,40,22.30
2015,09,12,13,41,22.30
2015,09,12,13,42,22.30
2015,09,12,13,43,22.30
2015,09,12,13,44,22.40
2015,09,12,13,45,22.50
2015,09,12,13,46,22.50
2015,09,12,13,47,22.60
2015,09,12,13,48,22.60
2015,09,12,13,49,22.60
2015,09,12,13,50,22.60
2015,09,12,13,51,22.60
2015,09,12,13,52,22.60
2015,09,12,13,53,22.60
2015,09,12,13,54,22.60
2015,09,12,13,55,22.60
2015,09,12,13,56,22.60
2015,09,12,13,57,22.60
2015,09,12,13,58,22.70
2015,09,12,13,59,22.80
2015,09,12,14,00,22.80
2015,09,12,14,01,22.90
2015,09,12,14,02,23.00
2015,09,12,14,03,23.10
2015,09,12,14,04,23.20
2015,09,12,14,05,23.20
2015,09,12,14,06,23.30
2015,09,12,14,07,23.40
2015,09,12,14,08,23.50
2015,09,12,14,09,23.70
2015,09,12,14,10,23.80
2015,09,12,14,11,23.90
2015,09,12,14,12,24.10
2015,09,12,14,13,24.20
2015,09,12,14,14,24.30
2015,09,12,14,15,24.40
2015,09,12,14,16,24.60
2015,09,12,14,17,24.70
2015,09,12,14,18,24.80
2015,09,12,14,19,24.90
2015,09,12,14,20,25.00
2015,09,12,14,21,25.00
2015,09,12,14,22,24.90
2015,09,12,14,23,24.90
2015,09,12,14,24,24.90
2015,09,12,14,25,24.90
2015,09,12,14,26,24.90
2015,09,12,14,27,24.90
2015,09,12,14,28,25.00
2015,09,12,14,29,24.90
2015,09,12,14,30,24.90
2015,09,12,14,31,24.90
2015,09,12,14,32,24.80
2015,09,12,14,33,24.80
2015,09,12,14,34,24.70
2015,09,12,14,35,24.60
2015,09,12,14,36,24.60
2015,09,12,14,37,24.50
2015,09,12,14,38,24.50
2015,09,12,14,39,24.40
2015,09,12,14,40,24.50
2015,09,12,14,41,24.50
2015,09,12,14,42,24.50
2015,09,12,14,43,24.50
2015,09,12,14,44,24.40
2015,09,12,14,45,24.40
2015,09,12,14,46,24.40
2015,09,12,14,47,24.40
2015,09,12,14,48,24.50
2015,09,12,14,49,24.50
2015,09,12,14,50,24.50
2015,09,12,14,51,24.30
2015,09,12,14,52,24.20
2015,09,12,14,53,24.10
2015,09,12,14,54,24.00
2015,09,12,14,55,24.00
2015,09,12,14,56,23.90
2015,09,12,14,57,23.90
2015,09,12,14,58,23.90
2015,09,12,14,59,23.90
2015,09,12,15,00,23.90
2015,09,12,15,01,23.90
2015,09,12,15,02,23.90
2015,09,12,15,03,23.90
2015,09,12,15,04,23.80
2015,09,12,15,05,23.80
2015,09,12,15,06,23.80
2015,09,12,15,07,23.70
2015,09,12,15,08,23.70
2015,09,12,15,09,23.70
2015,09,12,15,10,23.70
2015,09,12,15,11,23.70
2015,09,12,15,12,23.60
2015,09,12,15,13,23.60
2015,09,12,15,14,23.60
2015,09,12,15,15,23.50
2015,09,12,15,16,23.40
2015,09,12,15,17,23.40
2015,09,12,15,18,23.50
2015,09,12,15,19,23.50
2015,09,12,15,20,23.50
2015,09,12,15,21,23.50
2015,09,12,15,22,23.60
2015,09,12,15,23,23.60
2015,09,12,15,24,23.60
2015,09,12,15,25,23.60
2015,09,12,15,26,23.50
2015,09,12,15,27,23.50
2015,09,12,15,28,23.50
2015,09,12,15,29,23.60
2015,09,12,15,30,23.60
2015,09,12,15,31,23.60
2015,09,12,15,32,23.60
2015,09,12,15,33,23.60
2015,09,12,15,34,23.60
2015,09,12,15,35,23.60
2015,09,12,15,36,23.70
2015,09,12,15,37,23.80
2015,09,12,15,38,23.80
2015,09,12,15,39,23.80
2015,09,12,15,40,23.80
2015,09,12,15,41,23.90
2015,09,12,15,42,23.90
2015,09,12,15,43,23.90
2015,09,12,15,44,23.90
2015,09,12,15,45,23.90
2015,09,12,15,46,23.90
2015,09,12,15,47,23.80
2015,09,12,15,48,23.70
2015,09,12,15,49,23.70
2015,09,12,15,50,23.70
2015,09,12,15,51,23.70
2015,09,12,15,52,23.70
2015,09,12,15,53,23.70
2015,09,12,15,54,23.80
2015,09,12,15,55,23.80
2015,09,12,15,56,23.70
2015,09,12,15,57,23.70
2015,09,12,15,58,23.70
2015,09,12,15,59,23.80
2015,09,12,16,00,23.80
2015,09,12,16,01,23.80
2015,09,12,16,02,23.90
2015,09,12,16,03,23.90
2015,09,12,16,04,23.80
2015,09,12,16,05,23.80
2015,09,12,16,06,23.70
2015,09,12,16,07,23.70
2015,09,12,16,08,23.70
2015,09,12,16,09,23.70
2015,09,12,16,10,23.70
2015,09,12,16,11,23.80
2015,09,12,16,12,23.70
2015,09,12,16,13,23.70
2015,09,12,16,14,23.70
2015,09,12,16,15,23.60
2015,09,12,16,16,23.50
2015,09,12,16,17,23.40
2015,09,12,16,18,23.30
2015,09,12,16,19,23.30
2015,09,12,16,20,23.30
2015,09,12,16,21,23.20
2015,09,12,16,22,23.20
2015,09,12,16,23,23.20
2015,09,12,16,24,23.20
2015,09,12,16,25,23.30
2015,09,12,16,26,23.30
2015,09,12,16,27,23.30
2015,09,12,16,28,23.30
2015,09,12,16,29,23.30
2015,09,12,16,30,23.30
2015,09,12,16,31,23.30
2015,09,12,16,32,23.40
2015,09,12,16,33,23.40
2015,09,12,16,34,23.50
2015,09,12,16,35,23.50
2015,09,12,16,36,23.50
2015,09,12,16,37,23.50
2015,09,12,16,38,23.40
2015,09,12,16,39,23.40
2015,09,12,16,40,23.30
2015,09,12,16,41,23.20
2015,09,12,16,42,23.20
2015,09,12,16,43,23.20
2015,09,12,16,44,23.20
2015,09,12,16,45,23.30
2015,09,12,16,46,23.40
2015,09,12,16,47,23.40
2015,09,12,16,48,23.40
2015,09,12,16,49,23.50
2015,09,12,16,50,23.50
2015,09,12,16,51,23.50
2015,09,12,16,52,23.50
2015,09,12,16,53,23.40
2015,09,12,16,54,23.30
2015,09,12,16,55,23.30
2015,09,12,16,56,23.30
2015,09,12,16,57,23.20
2015,09,12,16,58,23.20
2015,09,12,16,59,23.10
2015,09,12,17,00,23.10
2015,09,12,17,01,23.10
2015,09,12,17,02,23.10
2015,09,12,17,03,23.10
2015,09,12,17,04,23.00
2015,09,12,17,05,23.00
2015,09,12,17,06,22.90
2015,09,12,17,07,22.90
2015,09,12,17,08,22.90
2015,09,12,17,09,23.00
2015,09,12,17,10,23.00
2015,09,12,17,11,23.10
2015,09,12,17,12,23.20
2015,09,12,17,13,23.20
2015,09,12,17,14,23.30
2015,09,12,17,15,23.30
2015,09,12,17,16,23.30
2015,09,12,17,17,23.30
2015,09,12,17,18,23.40
2015,09,12,17,19,23.40